Weather History for Quincy, IL

Change the Weather History Date:

Tuesday, February 19, 2013

  Actual Average Record
Temperature  
Mean Temperature 22 °F 32 °F  
Max Temperature 26 °F 40 °F 71 °F (1930)
Min Temperature 18 °F 24 °F -11 °F (1903)
Degree Days  
Heating Degree Days 43 33  
Month to date heating degree days 609 675  
Since 1 July heating degree days 3760 4061  
Cooling Degree Days 0 0  
Month to date cooling degree days 0 0  
Year to date cooling degree days 0 0  
Moisture  
Dew Point 11 °F    
Average Humidity 59    
Maximum Humidity 68    
Minimum Humidity 50    
Precipitation  
Precipitation 0.00 in 0.08 in 1.37 in (1994)
Month to date precipitation 1.15 1.19  
Year to date precipitation 4.08 2.71  
Sea Level Pressure  
Sea Level Pressure 30.11 in    
Wind  
Wind Speed 18 mph (WNW)    
Max Wind Speed 30 mph    
Max Gust Speed 40 mph    
Visibility 10 miles    
Events      
T = Trace of Precipitation, MM = Missing Value Source: NWS Daily Summary

Daily Weather History Graph

Daily Weather History Graph

Search for Another Location

Airport:

Trip Planner

Search our weather history database for the weather conditions in past years. The results will help you decide how hot, cold, wet, or windy it might be!

Date:

Astronomy

Feb. 19, 2013 Rise Set
Actual Time 6:51 AM CST 5:45 PM CST
Civil Twilight 6:24 AM CST 6:13 PM CST
Nautical Twilight 5:52 AM CST 6:44 PM CST
Astronomical Twilight 5:21 AM CST 7:16 PM CST
Moon 12:17 PM CST (2/19) 2:23 AM CST (2/19)
Length of Visible Light 11h 48m
Length of Day
10h 53m
Waxing Gibbous, 67% of the Moon is Illuminated
Feb 19
Waxing Gibbous
Feb 25
Full
Mar 4
Last Quarter
Mar 11
New
Mar 19
First Quarter

Hourly Weather History & Observations

Time (CST) Temp. Windchill Dew Point Humidity Pressure Visibility Wind Dir Wind Speed Gust Speed Precip Events Conditions
12:30 AM 24.8 °F 8.7 °F 15.8 °F 69% 29.90 in 10.0 mi WNW 26.5 mph 40.3 mph N/A   Scattered Clouds
12:54 AM 25.0 °F 12.2 °F 14.0 °F 63% 29.92 in 10.0 mi West 16.1 mph - N/A   Partly Cloudy
1:16 AM 24.8 °F 11.1 °F 15.8 °F 69% 29.91 in 10.0 mi WNW 18.4 mph - N/A   Mostly Cloudy
1:54 AM 24.1 °F 9.0 °F 14.0 °F 65% 29.94 in 10.0 mi WNW 21.9 mph 29.9 mph N/A   Mostly Cloudy
2:39 AM 24.8 °F 10.3 °F 14.0 °F 64% 29.93 in 10.0 mi West 20.7 mph 26.5 mph N/A   Scattered Clouds
2:54 AM 21.9 °F 5.1 °F 12.0 °F 66% 29.95 in 10.0 mi West 25.3 mph 33.4 mph N/A   Partly Cloudy
3:54 AM 21.0 °F 5.7 °F 12.0 °F 68% 29.96 in 10.0 mi WNW 19.6 mph 31.1 mph N/A   Partly Cloudy
4:54 AM 19.9 °F 3.5 °F 10.9 °F 68% 29.99 in 10.0 mi WNW 21.9 mph 32.2 mph N/A   Scattered Clouds
5:09 AM 19.4 °F 4.5 °F 12.2 °F 74% 29.97 in 10.0 mi WNW 17.3 mph 27.6 mph N/A   Mostly Cloudy
5:54 AM 19.9 °F 3.9 °F 10.0 °F 65% 30.02 in 10.0 mi West 20.7 mph 29.9 mph N/A   Overcast
6:54 AM 18.0 °F 0.6 °F 9.0 °F 68% 30.06 in 10.0 mi WNW 23.0 mph 33.4 mph N/A   Scattered Clouds
7:03 AM 17.6 °F 1.7 °F 8.6 °F 68% 30.03 in 10.0 mi WNW 18.4 mph 29.9 mph N/A   Mostly Cloudy
7:54 AM 18.0 °F -0.2 °F 8.1 °F 65% 30.10 in 10.0 mi WNW 25.3 mph 34.5 mph N/A   Overcast
8:54 AM 18.0 °F 0.6 °F 8.1 °F 65% 30.12 in 10.0 mi WNW 23.0 mph 38.0 mph N/A   Overcast
9:54 AM 19.0 °F 2.0 °F 9.0 °F 65% 30.14 in 10.0 mi WNW 23.0 mph 29.9 mph N/A   Overcast
10:54 AM 19.9 °F 3.9 °F 9.0 °F 62% 30.17 in 10.0 mi WNW 20.7 mph 27.6 mph N/A   Overcast
12:54 PM 21.9 °F 5.5 °F 10.0 °F 60% 30.18 in 10.0 mi West 24.2 mph 34.5 mph N/A   Overcast
1:30 PM 23.0 °F 7.2 °F 10.4 °F 59% 30.16 in 10.0 mi West 23.0 mph 34.5 mph N/A   Mostly Cloudy
1:54 PM 23.0 °F 6.6 °F 10.0 °F 58% 30.18 in 10.0 mi WNW 25.3 mph 33.4 mph N/A   Mostly Cloudy
2:54 PM 25.0 °F 10.2 °F 10.0 °F 53% 30.20 in 10.0 mi WNW 21.9 mph 35.7 mph N/A   Partly Cloudy
3:54 PM 25.0 °F 10.6 °F 9.0 °F 51% 30.22 in 10.0 mi West 20.7 mph 29.9 mph N/A   Partly Cloudy
4:54 PM 26.1 °F 13.1 °F 10.0 °F 51% 30.23 in 10.0 mi WNW 17.3 mph 24.2 mph N/A   Clear
6:54 PM 23.0 °F 14.7 °F 10.4 °F 59% 30.22 in 10.0 mi WNW 6.9 mph - N/A   Clear
7:54 PM 21.9 °F 11.7 °F 10.0 °F 60% 30.27 in 10.0 mi NW 9.2 mph - N/A   Clear
8:54 PM 21.0 °F 10.6 °F 9.0 °F 60% 30.28 in 10.0 mi NNW 9.2 mph - N/A   Clear
9:54 PM 19.0 °F 10.0 °F 9.0 °F 65% 30.30 in 10.0 mi WNW 6.9 mph - N/A   Clear
10:54 PM 19.0 °F 8.2 °F 8.1 °F 62% 30.32 in 10.0 mi WNW 9.2 mph - N/A   Clear
11:54 PM 18.0 °F 5.4 °F 8.1 °F 65% 30.32 in 10.0 mi NW 11.5 mph - N/A   Clear